Home > Time Zones > World Clock > Weather > Peru > Lima > Past weeks

Flag for Peru Weather past 2 weeks in Lima, Lima, Peru

Now
77 °F

Partly sunny.


Feels Like: 79 °F
Forecast: 71 / 81 °F
Wind: 12 mph from South

Location: Lima-Callao / Aerop. Internacional Jorgechavez

Current Time: Jan 31, 2015 at 12:11:20 PM

Latest Report: Jan 31, 2015 at 11:00 AM


Visibility: N/A

Pressure: 29.89 "Hg

Humidity: 74%

Dew point: 68 °F

Location of LimaLocation

Historic Weather in Lima — Graph

°F

Lima temperature yesterday

Maximum temperature yesterday: 79 °F (at 1:00 PM)
Minimum temperature yesterday: 73 °F (at 7:00 AM)
Average temperature yesterday: 75 °F

Past Weeks' High & Low Weather Summary

 TemperatureHumidityPressure
High82 °F (Jan 28, 1:00 PM)89% (Jan 28, 7:00 PM)30.04 "Hg (Jan 28, 7:00 PM)
Low68 °F (Jan 17, 4:00 AM)54% (Jan 19, 12:00 PM)29.77 "Hg (Jan 28, 5:00 PM)
Average73 °F76%29.92 "Hg
* Reported Jan 16 10:00 AM — Jan 31 10:00 AM, Lima, Weather by CustomWeather, © 2014

Note: Actual official high and low records may vary slightly from our data, if they occured in-between our weather recording intervals... More about our weather records

Advertising

Lima weather history for previous 24 hours

 ConditionsComfort  
Time TempWeatherWind HumidityBarometerVisibility
10:00 AM
Jan 31
77 °FPartly sunny.10 mph74%29.89 "HgN/A
9:00 AM75 °FPartly sunny.13 mph78%29.92 "HgN/A
8:00 AM73 °FPartly sunny.13 mph83%29.89 "HgN/A
7:00 AM72 °FOvercast.9 mph88%29.86 "HgN/A
6:00 AM72 °FOvercast.7 mph88%29.86 "HgN/A
5:00 AM72 °FOvercast.8 mph88%29.83 "HgN/A
4:00 AM72 °FOvercast.9 mph88%29.83 "HgN/A
3:00 AM72 °FOvercast.10 mph88%29.83 "HgN/A
2:00 AM72 °FPassing clouds.9 mph88%29.83 "HgN/A
1:00 AM72 °FPassing clouds.10 mph88%29.86 "HgN/A
12:00 AM73 °FPassing clouds.15 mph83%29.86 "HgN/A
11:00 PM
Jan 30
73 °FPassing clouds.16 mph83%29.86 "HgN/A
10:00 PM73 °FPassing clouds.17 mph83%29.86 "HgN/A
9:00 PM73 °FPassing clouds.14 mph83%29.86 "HgN/A
8:00 PM73 °FOvercast.14 mph83%29.83 "HgN/A
7:00 PM73 °FClear.16 mph83%29.83 "Hg10 mi
6:00 PM73 °FSunny.16 mph83%29.80 "Hg10 mi
5:00 PM75 °FSunny.16 mph78%29.80 "Hg10 mi
4:00 PM77 °FBroken clouds.18 mph74%29.80 "HgN/A
3:00 PM79 °FPartly sunny.15 mph65%29.80 "HgN/A
1:00 PM79 °FPartly sunny.14 mph70%29.86 "HgN/A
12:00 PM77 °FOvercast.14 mph74%29.89 "HgN/A
Weather by CustomWeather, © 2014

See weather overviewHow to use our weather pages